Regional Weather Roundup
Issued by NWS

Home | Current Version | Previous Version | Text Only | Print | Product List | Glossary On
Versions: 1 2 3 4 5 6 7 8 9 10 11 12 13 14 15 16 17 18 19 20 21 22 23 24 25 26 27 28 29 30 31 32 33 34 35 36 37 38 39 40 41 42 43 44 45 46 47 48 49 50
000
ASUS43 KLOT 191009
RWRIL

ILLINOIS REGIONAL WEATHER ROUNDUP
NATIONAL WEATHER SERVICE CHICAGO/ROMEOVILLE IL
500 AM CDT SAT AUG 19 2017

NOTE: "FAIR" INDICATES FEW OR NO CLOUDS BELOW 12,000 FEET WITH NO
SIGNIFICANT WEATHER AND/OR OBSTRUCTIONS TO VISIBILITY.

* THESE STATIONS ARE NOT UNDER NWS QUALITY CONTROL. THEY ALSO MAY NOT
  REPORT WEATHER SUCH AS PRECIPITATION OR FOG.

ILZ001-002-007-009-015-016-024-191100-
NORTHWEST ILLINOIS

CITY           SKY/WX    TMP DP  RH WIND       PRES   REMARKS
MOLINE         CLOUDY    66  62  87 E9        29.90F
STERLING*      PTCLDY    60  59  96 CALM      29.93R
SAVANNA*       PTCLDY    59  58  97 W3        29.94R
$$

ILZ003-004-008-010-011-017-018-191100-
NORTH CENTRAL ILLINOIS

CITY           SKY/WX    TMP DP  RH WIND       PRES   REMARKS
ROCKFORD       MOCLDY    61  59  93 CALM      29.93S
FREEPORT*      FOG       55  55  99 CALM      29.95R VSB 1/2
ROCHELLE*      PTCLDY    58  57  97 CALM      29.92F
DE KALB*       CLEAR     59  58  97 CALM      29.92S
PERU*          CLEAR     62  59  89 NE3       29.93R
$$

ILZ005-006-012>014-019>023-191100-
NORTHEAST ILLINOIS

CITY           SKY/WX    TMP DP  RH WIND       PRES   REMARKS
CHICAGO-OHARE  CLEAR     64  59  83 W3        29.90S
CHICAGO-MIDWAY CLEAR     67  61  81 NW5       29.90S
AURORA         CLEAR     57  57 100 NW5       29.92S
LANSING*       CLEAR     67  57  72 NW3       29.91S
JOLIET*        CLEAR     64  62  93 CALM      29.92R
WAUKEGAN       PTCLDY    61  60  97 CALM      29.90R
DUPAGE AIRPORT CLEAR     60  59  96 CALM      29.90F
KANKAKEE*      PTCLDY    64  61  88 CALM      29.92R
WHEELING       CLEAR     63  62  97 NW5       29.92S
MORRIS*        CLEAR     61  59  95 CALM      29.91S
ROMEOVILLE*    CLEAR     62  57  84 CALM      29.92R
NORTHERLY ISL    N/A     68  60  75 NW6         N/A
$$

LMZ740>746-191100-
SOUTHERN LAKE MICHIGAN

STATION/POSITION SKY/WX   TEMP    WIND        PRES    VSBY  WAVE
                          AIR SEA DIR/SP/G                  HT/PER
                          (F)     (DEG/KT/KT) (MB)    (MI)  (FT/S)
SOUTHERN BUOY              69 71  350/ 12/ 14 1011.7          2/ 4
WILMETTE HARBOR            69 73  310/ 10/ 12   N/A           2/ 4
HARRISON CRIB              69     330/ 10/ 11   N/A
CALUMET HARBOR             68     330/  3/  6 1012.1S
BURNS HARBOR               70     340/  9/ 11 1012.9S
MICHIGAN CITY              70     340/ 10/ 11   N/A
MICHIGAN CITY 6N           70 74  350/  8/ 12   N/A           3/ 4
ST. JOSEPH                 71 73   10/ 12/ 16 1011.8S         3/ 4
$$

ILZ025>027-034>036-040-047-049-050-058-095>099-191100-
WEST-CENTRAL ILLINOIS

CITY           SKY/WX    TMP DP  RH WIND       PRES   REMARKS
QUINCY         CLEAR     65  63  93 SW3       29.90F
GALESBURG*     MOCLDY    64  62  93 NE8       29.95R
MACOMB*        CLEAR     63  62  98 CALM      29.95R
JACKSONVILLE*  PTCLDY    64  63  95 CALM      29.91R
PITTSFIELD*    CLEAR     70  69  95 W5        29.92S
$$

ILZ028>032-037-038-041>044-048-051>054-059>061-191100-
CENTRAL ILLINOIS

CITY           SKY/WX    TMP DP  RH WIND       PRES   REMARKS
PONTIAC        MOCLDY    63  63  98 N3        29.93R
BLOOMINGTON    PTCLDY    63  61  93 NE3       29.93S
DECATUR        CLEAR     69  64  84 W5        29.91S
PEORIA         CLEAR     67  64  90 NE5       29.92R
LACON*         CLOUDY    64  63  95 CALM      29.92R
LINCOLN*       CLEAR     63  63 100 CALM      29.91S FOG
SPRINGFIELD    PTCLDY    66  65  96 CALM      29.91S
TAYLORVILLE    CLEAR     65  64  96 CALM      29.91S
$$

ILZ033-039-045-046-055>057-062-063-191100-
EAST-CENTRAL ILLINOIS

CITY           SKY/WX    TMP DP  RH WIND       PRES   REMARKS
CHAMPAIGN      CLEAR     61  59  93 CALM      29.92R
RANTOUL*       CLEAR     67  65  93 CALM      29.91F
MATTOON        CLOUDY    71  67  87 W5        29.90S
PARIS*         CLOUDY    64  63  99 CALM      29.92S
$$

ILZ079-100>102-191100-
SOUTHWEST ILLINOIS

CITY           SKY/WX    TMP DP  RH WIND       PRES   REMARKS
ALTON          PTCLDY    66  66  99 CALM      29.91S
BELLEVILLE     CLEAR     69  66  92 CALM      29.92S
CAHOKIA*       PTCLDY    70  66  87 S5        29.90F
SPARTA*        CLEAR     69  67  93 CALM      29.92F
$$

ILZ064>066-069>071-074>076-080>082-084>086-088>090-092>094-191100-
SOUTH-CENTRAL ILLINOIS

CITY           SKY/WX    TMP DP  RH WIND       PRES   REMARKS
CARBONDALE     CLEAR     68  68 100 S3        29.92F
CAIRO*         PTCLDY    71  67  89 CALM      29.93S
EFFINGHAM*     PTCLDY    67  67 100 CALM      29.93S
MARION         CLEAR     70  70 100 CALM      29.94S
MT. VERNON     TSTM      70  66  87 E13G24    29.93S FOG
CENTRALIA*     CLOUDY    71  70  96 SW6       29.92R
SALEM*         PTCLDY    69  67  93 S6        29.93R
METROPOLIS*    CLEAR     67  66  97 CALM      29.95R
$$

ILZ067-068-072-073-078-083-087-091-191100-
SOUTHEAST ILLINOIS

CITY           SKY/WX    TMP DP  RH WIND       PRES   REMARKS
LAWRENCEVILLE  CLOUDY    70  67  90 S5        29.91F
FLORA*         CLOUDY    70  67  92 SW5       29.92S
FAIRFIELD*     CLEAR     66  66  99 CALM      29.92S
HARRISBURG*    CLOUDY    68  67  96 S3        29.94S
ROBINSON*      CLOUDY    68  66  95 CALM      29.92S
CARMI*         PTCLDY    65  65 100 S3        29.92F
$$

ABBREVIATIONS USED IN REMARKS
   TC - TEMPERATURE IN CELSIUS
  WCI - WIND CHILL INDEX
   HX - HEAT INDEX
  VSB - VISIBILITY
$$





USA.gov is the U.S. government's official web portal to all federal, state and local government web resources and services.